Date,TemperatureHighF,TemperatureAvgF,TemperatureLowF,DewpointHighF,DewpointAvgF,DewpointLowF,HumidityHigh,HumidityAvg,HumidityLow,PressureMaxIn,PressureMinIn,WindSpeedMaxMPH,WindSpeedAvgMPH,GustSpeedMaxMPH,PrecipitationSumIn
2012-11-24,36,30,27,21,20,19,77,68,53,29.91,29.80,4,2,5,0.00
2012-11-25,56,45,29,27,24,20,71,44,31,29.80,29.64,21,13,22,0.00
2012-12-8,51,47,19,48,44,17,95,90,84,29.71,29.66,11,6,19,0.05
2012-12-9,59,50,44,59,49,40,99,96,86,29.69,29.43,20,8,21,0.52
2012-12-10,44,32,30,41,26,22,87,78,68,29.74,29.51,23,10,23,0.00
2012-12-11,41,33,27,22,21,19,73,63,44,29.95,29.77,14,4,14,0.00
2012-12-12,51,37,26,29,25,21,89,63,36,30.08,29.96,8,3,8,0.00
2012-12-13,54,40,29,30,25,22,86,54,30,30.10,29.95,11,4,11,0.00
2012-12-14,56,45,34,32,27,22,64,50,34,29.99,29.80,16,5,16,0.00
2012-12-15,57,51,45,54,45,32,89,79,55,29.81,29.44,29,11,29,0.09
2012-12-17,39,39,39,36,36,36,91,90,90,29.50,29.49,12,11,12,0.00
2012-12-18,58,50,38,42,38,33,91,64,45,29.61,29.43,19,12,24,0.00
2012-12-19,55,45,34,45,37,30,90,73,63,29.76,29.42,19,7,19,0.00
2012-12-20,59,38,30,54,30,22,97,73,53,29.54,29.03,43,27,49,0.25
2012-12-21,39,32,26,22,17,15,71,55,38,29.98,29.54,34,17,37,0.01
2012-12-22,45,35,21,21,18,14,78,52,33,30.02,29.71,9,4,9,0.00
2012-12-23,65,49,34,34,31,21,73,51,29,29.71,29.57,14,6,15,0.00
2012-12-24,47,36,29,39,30,25,92,79,60,29.81,29.49,20,9,24,0.00
2012-12-25,36,33,27,28,26,23,88,76,65,29.91,29.57,33,16,33,0.00
2012-12-26,33,31,30,32,29,2,99,92,27,29.80,29.37,30,8,31,1.51
2012-12-28,32,30,28,31,26,-19,99,88,10,29.82,29.55,4,2,4,0.02
2012-12-29,32,25,19,31,19,-19,99,80,10,30.06,29.55,18,7,18,12.94
2012-12-30,34,28,16,25,22,14,98,80,58,30.19,30.00,12,5,12,0.00
2012-12-31,31,30,30,25,25,25,82,81,80,30.00,29.97,11,6,11,0.00
2013-1-1,44,25,18,44,20,12,99,82,76,29.95,29.77,6,0,6,0.01